Wind_Speed
47 49 52 52 49 47 46 47 48 47 42 38 36 33 32 32 32 30 30 29 25 21 17 15 14 13 13 11 11 11 9 5 1 3 6 7 7 8 8 9 10 13 15 15 15 16 18 19 19 21 22 25 26 23 21 20 22 24 22 20 19 17 17 16 15 15 14 13 13 12 12 12 12 12 13 14 14 15 16 17 17 18 18 19 19 20
48 51 51 49 47 46 46 47 49 49 46 41 40 38 35 36 36 32 32 32 28 23 19 16 14 14 13 10 10 10 8 5 1 4 5 7 8 8 8 9 11 13 15 15 14 16 18 20 20 20 21 24 26 24 21 21 23 24 22 20 19 18 17 16 15 14 13 13 12 12 12 11 11 12 12 12 13 14 14 15 16 16 17 17 17 18
48 49 46 45 46 46 47 48 50 51 49 45 43 42 40 41 39 34 34 33 30 25 21 17 15 14 13 10 10 10 8 5 2 4 5 6 8 9 10 10 11 13 14 15 15 17 19 21 22 21 21 24 26 25 23 23 25 25 22 21 19 18 17 16 15 14 13 12 12 11 11 10 10 10 11 11 11 12 12 13 14 15 15 15 15 16
47 45 42 44 46 46 48 49 51 51 50 48 47 46 45 45 41 36 35 33 32 28 24 19 15 15 15 10 10 11 10 7 3 4 5 5 8 10 11 11 12 14 15 15 16 18 21 22 23 24 25 25 25 24 23 23 25 25 23 21 19 18 17 15 15 14 13 12 11 11 10 9 9 9 9 10 10 10 10 11 12 13 13 13 14 14
46 43 40 42 44 45 47 48 49 51 52 51 49 50 51 48 43 38 35 33 34 32 27 22 17 17 16 12 11 12 10 8 5 5 6 6 9 12 12 12 12 13 15 15 16 18 22 24 25 27 28 27 25 23 22 23 25 26 24 22 20 18 16 15 14 13 12 11 11 10 9 9 8 8 8 8 8 8 9 9 10 11 11 11 12 12
45 41 39 41 43 44 44 45 48 50 51 51 51 53 53 49 44 40 36 34 35 34 30 25 21 20 18 14 14 14 11 10 8 7 8 8 9 12 12 12 11 13 15 16 16 18 23 26 27 29 30 28 25 23 23 24 26 27 26 23 20 18 16 15 13 13 12 11 10 9 9 8 7 7 7 7 7 7 7 7 8 9 9 10 10 10
44 41 39 40 42 42 42 44 47 47 47 49 51 52 51 48 44 41 38 35 35 36 32 27 25 23 20 17 16 16 14 12 10 9 10 10 10 10 11 12 12 13 15 16 16 19 23 26 28 29 29 27 24 22 22 24 26 27 26 23 21 19 17 16 14 13 12 11 10 9 9 8 7 6 6 5 5 5 5 5 5 6 7 8 8 9
43 40 37 39 40 40 42 44 44 41 43 46 47 47 47 47 45 43 40 35 35 36 32 29 28 26 24 21 18 18 17 14 13 11 11 11 11 10 11 12 13 13 15 15 16 19 22 26 28 30 29 26 24 22 21 22 24 24 24 24 22 21 19 18 16 15 13 12 11 10 9 8 7 6 5 4 3 3 3 3 3 4 5 5 6 7
42 37 36 37 36 39 42 42 39 38 41 43 41 41 44 45 44 43 40 36 37 35 32 31 30 29 29 25 20 21 20 17 15 14 13 13 12 12 12 13 14 14 14 15 16 18 22 26 30 31 29 28 26 23 21 20 21 23 24 24 24 23 22 20 19 18 16 14 13 11 10 8 7 5 4 3 1 0 1 2 3 3 3 4 4 5
40 36 36 33 33 37 40 38 36 38 41 39 37 38 41 43 43 43 40 39 39 35 34 36 34 34 33 27 24 25 23 19 16 16 16 16 16 14 13 13 14 14 14 14 16 18 22 27 31 31 31 30 27 24 21 19 22 24 25 26 26 25 24 23 21 20 18 16 14 12 11 9 7 6 4 3 2 2 2 3 4 5 5 5 5 4
40 37 34 31 33 38 38 36 35 37 37 35 35 37 38 39 41 41 41 42 40 37 41 42 38 38 35 31 31 29 24 20 19 19 19 19 19 17 15 14 15 15 14 14 16 19 23 28 30 30 30 29 26 24 22 22 24 26 27 27 26 25 25 24 22 21 19 17 16 14 12 11 9 7 6 5 4 4 4 5 5 6 7 7 7 7
44 39 35 34 37 39 36 34 33 33 33 33 34 35 35 35 36 38 40 42 42 46 50 46 41 40 37 36 36 31 25 23 24 23 21 20 22 20 18 16 16 17 16 16 16 19 23 27 27 28 28 27 25 24 23 24 25 27 29 28 26 24 25 25 23 21 20 18 17 15 14 13 11 9 8 7 6 6 5 6 6 7 8 8 9 9
48 43 40 39 40 39 36 33 31 29 31 33 33 33 32 32 32 34 38 42 48 55 54 46 42 43 42 40 38 32 28 27 27 25 22 22 24 23 21 19 18 18 18 18 19 20 23 24 24 25 26 25 24 24 23 23 24 26 27 27 26 25 25 25 24 22 21 19 18 17 16 15 13 12 10 9 8 8 7 7 7 8 8 9 9 9
48 45 42 40 41 40 37 34 32 30 32 32 31 29 28 28 29 32 36 42 50 56 52 44 42 45 45 43 39 35 32 30 27 27 26 24 25 25 24 21 20 19 19 20 21 22 23 22 22 24 25 25 25 25 24 24 24 24 25 26 26 25 25 25 25 24 22 21 20 18 17 16 15 14 13 12 11 10 9 9 8 9 9 9 9 10
47 44 42 41 42 42 40 38 36 33 33 31 27 24 24 26 29 31 34 38 46 51 48 42 42 46 49 46 42 38 35 32 29 28 28 27 26 26 26 25 24 22 21 22 23 24 24 23 23 24 25 26 26 25 25 25 24 23 23 25 26 26 26 25 25 24 23 22 22 21 19 18 17 16 15 14 13 12 12 11 10 10 10 10 11 11
48 46 46 46 45 43 42 41 39 36 33 30 25 21 25 28 27 28 30 33 39 43 44 43 44 51 54 50 43 40 37 35 32 31 30 29 27 26 27 28 28 26 25 24 24 24 25 26 26 26 26 26 26 26 25 25 24 24 23 23 25 27 27 27 26 25 24 24 24 23 21 20 19 18 17 16 15 15 14 13 12 11 12 13 13 14
49 49 50 49 46 45 45 43 40 36 34 31 25 24 28 26 22 25 28 30 32 37 42 46 48 52 55 50 45 41 40 38 36 34 33 32 30 27 28 30 30 30 29 28 27 26 25 26 27 27 27 26 26 26 26 25 25 24 23 23 25 27 29 28 27 27 26 26 25 24 23 22 21 20 19 19 18 17 17 15 14 13 14 15 16 16
48 50 51 47 47 48 47 43 37 33 32 29 27 29 28 22 20 25 27 28 30 34 39 46 51 52 51 50 48 45 44 43 41 39 36 34 32 30 30 31 31 31 31 31 30 28 27 27 28 28 28 28 28 28 27 26 24 24 24 25 26 28 28 28 27 28 28 27 26 25 24 24 23 22 21 21 20 20 19 18 16 16 16 16 18 18
50 51 50 48 48 49 45 41 34 30 28 29 30 30 25 20 22 25 26 27 30 32 35 43 51 53 49 50 52 50 48 47 44 42 39 36 34 34 34 32 31 31 32 32 32 32 31 31 30 30 30 30 29 29 28 26 25 25 25 26 26 27 27 27 28 28 27 27 26 26 25 25 25 24 23 22 22 22 21 20 19 19 19 19 20 20
53 54 53 52 51 49 44 39 33 30 31 31 32 30 28 27 27 26 26 26 28 31 35 40 48 53 50 50 53 52 49 47 45 42 40 38 36 37 37 35 32 31 31 32 33 33 33 32 32 31 31 31 30 29 28 26 26 26 26 27 27 27 27 28 29 28 27 27 27 26 26 25 25 25 25 24 24 24 23 22 22 22 22 22 23 23
56 56 55 55 53 49 44 40 36 36 35 34 33 32 31 32 31 29 28 28 29 32 35 38 43 48 50 50 52 53 51 48 46 44 42 40 38 37 38 36 35 33 32 32 32 32 33 34 33 32 31 31 30 29 28 27 28 28 28 29 29 28 28 29 29 28 28 28 28 28 28 27 27 27 27 27 26 26 25 25 25 25 25 26 25 25
58 57 57 57 54 49 46 44 44 42 40 38 36 34 33 32 31 29 28 29 31 32 34 36 38 40 43 46 49 52 53 49 47 46 44 41 39 38 37 37 36 35 34 33 32 31 33 33 33 33 32 31 30 29 29 29 29 29 30 30 29 29 29 29 29 29 29 30 31 30 30 29 29 29 29 29 29 29 28 27 27 27 28 29 28 27
60 59 59 59 56 52 50 49 48 45 43 41 37 34 32 30 27 26 26 28 29 28 28 29 32 33 33 36 39 45 51 51 48 47 45 44 41 39 38 37 36 36 35 35 34 33 34 34 33 33 32 31 30 30 31 31 31 31 31 31 30 30 31 31 31 30 30 31 32 32 32 32 31 31 31 31 31 31 30 29 29 29 30 31 30 28
64 62 62 62 60 57 54 53 51 48 45 41 37 35 32 30 28 27 27 28 26 24 22 21 27 31 27 26 29 33 42 47 49 49 48 47 45 43 42 41 38 37 37 36 36 36 36 35 34 34 33 33 33 33 33 34 34 33 33 32 32 33 33 32 32 32 32 33 34 34 34 34 33 33 33 33 33 33 32 32 32 31 32 32 31 30
67 64 64 64 63 60 57 55 52 49 45 41 38 37 34 33 33 29 27 26 23 22 20 18 26 30 26 24 24 25 32 40 45 48 50 50 49 47 46 44 42 41 40 39 39 39 39 37 37 36 35 35 35 35 35 36 35 35 34 34 34 35 34 33 33 34 35 36 36 36 36 36 36 36 35 35 35 35 34 34 34 33 33 33 33 33
69 67 66 66 65 62 58 55 52 50 47 43 41 40 38 36 35 31 29 28 24 22 21 19 28 32 28 26 25 24 26 32 39 45 49 51 51 50 49 47 45 45 44 43 42 41 40 40 39 38 38 37 37 37 37 37 37 36 36 36 36 37 36 35 36 36 37 38 38 39 39 38 37 37 37 37 36 36 36 35 35 34 34 34 34 35
72 70 68 67 66 63 61 58 56 54 51 48 46 44 42 39 37 34 32 30 25 23 22 23 31 34 30 27 26 25 25 28 33 38 43 48 50 51 51 49 48 48 47 46 45 43 42 42 41 41 40 40 40 40 40 39 39 38 38 38 38 38 37 36 37 38 39 40 40 41 41 40 39 38 38 37 37 37 37 37 36 36 35 36 36 37
75 73 70 69 68 66 64 62 60 58 54 51 50 48 46 43 41 37 35 32 29 27 24 26 32 33 31 29 26 26 26 27 29 32 36 41 45 49 51 51 50 50 49 48 47 47 46 44 44 43 43 43 44 43 43 43 42 41 41 41 40 39 39 38 38 39 40 40 41 43 43 41 40 39 39 38 38 38 39 38 38 38 38 38 39 39
79 76 73 71 69 67 66 65 63 60 58 55 53 51 49 47 44 41 39 36 34 30 29 31 31 29 30 29 27 27 26 25 26 27 29 32 36 41 45 48 50 50 50 51 50 50 49 49 48 47 46 46 46 46 46 46 45 45 44 44 43 42 42 41 41 41 41 42 43 44 44 42 41 41 40 40 40 40 40 41 41 41 41 41 41 41
82 80 77 74 71 69 68 68 66 64 61 58 55 53 52 50 47 45 43 40 37 34 33 33 28 26 29 29 29 28 26 24 24 24 25 27 29 32 36 41 45 47 48 50 51 52 53 53 52 51 50 49 49 49 48 48 48 47 47 47 46 46 45 44 44 44 44 44 45 46 45 44 43 43 43 43 43 43 44 44 44 44 45 45 44 44
85 83 80 76 74 72 71 70 69 67 64 61 59 56 55 53 50 48 45 43 40 37 36 34 29 26 30 33 33 31 27 25 25 25 25 26 27 28 30 34 39 42 43 45 48 51 53 54 54 53 52 52 52 52 51 51 50 49 49 49 49 49 48 47 47 47 46 47 47 48 47 47 46 46 46 47 47 47 47 47 47 48 48 48 48 46
88 85 82 80 77 75 73 72 71 69 67 65 62 60 58 55 53 51 49 47 44 41 40 37 32 31 35 38 38 35 30 28 28 27 26 26 27 29 30 31 34 38 39 39 41 44 47 50 53 54 55 55 55 55 55 54 53 51 51 52 52 52 51 50 50 50 49 50 50 50 50 51 50 50 49 50 50 50 50 50 50 51 52 51 50 49
89 87 85 83 80 77 76 75 73 72 71 67 64 62 60 58 57 55 53 51 48 45 42 39 37 41 45 44 42 39 34 31 32 31 30 28 28 29 30 31 32 33 35 35 34 36 39 42 46 50 53 55 57 57 57 57 55 55 56 56 55 53 52 52 52 52 52 52 52 52 53 54 54 53 53 53 53 53 52 52 53 54 54 54 53 51
89 88 87 86 83 81 80 78 76 75 73 69 66 65 64 63 61 58 55 53 52 49 46 44 44 47 49 47 45 43 40 37 35 33 31 30 29 29 30 31 31 32 33 33 33 33 35 37 39 42 46 50 53 56 58 58 58 58 58 58 57 56 55 55 56 55 55 55 54 55 56 56 56 57 56 56 55 55 54 55 56 56 56 56 55 53
90 89 89 87 86 84 83 82 80 77 73 70 68 68 67 65 62 60 58 57 56 53 51 49 48 48 49 49 48 48 46 42 37 34 32 31 31 31 31 31 31 31 32 33 34 35 35 36 38 39 41 44 47 50 53 56 58 59 59 60 60 60 60 60 59 58 58 58 58 58 59 59 59 60 59 59 58 57 56 57 58 58 58 58 56 55
92 91 90 89 88 86 86 86 81 76 73 71 71 71 70 67 65 63 62 61 60 58 55 52 50 50 52 52 51 51 49 45 40 38 36 34 33 33 32 32 31 31 32 33 35 36 37 38 38 39 40 41 43 45 47 50 53 55 57 59 60 61 62 63 62 62 63 63 63 63 63 62 63 63 63 62 61 60 59 60 60 61 61 59 58 57
95 93 91 90 89 88 88 86 81 77 75 74 74 75 73 70 68 67 65 63 63 61 58 55 53 52 53 55 55 54 52 47 43 41 40 39 38 36 34 33 32 32 32 33 35 36 37 38 39 39 40 41 43 44 45 45 47 49 52 54 56 58 61 62 64 66 67 67 67 67 67 66 66 67 66 66 66 65 64 64 63 63 63 62 61 60
99 96 94 92 91 89 89 87 83 80 78 77 77 77 74 72 71 69 67 66 65 63 60 58 56 54 55 57 57 56 54 49 45 43 44 44 42 39 37 35 34 33 33 33 34 36 37 38 39 40 40 41 43 44 44 43 44 46 47 49 51 53 55 57 61 65 68 68 69 69 68 69 70 70 70 69 70 70 69 68 67 66 65 65 65 64
101 98 96 94 91 90 89 87 84 81 79 78 79 78 76 74 72 70 68 67 67 65 62 60 59 58 58 59 58 58 55 50 47 48 49 47 45 43 41 39 37 36 35 35 35 35 36 38 39 40 41 42 43 44 44 43 44 44 45 46 48 49 51 54 57 60 62 63 64 64 65 67 70 71 72 72 73 73 73 72 70 69 69 68 69 69
102 100 98 94 90 89 88 87 85 82 81 81 81 80 78 76 74 72 70 67 66 66 65 63 63 62 61 60 60 58 55 52 53 54 53 51 49 47 45 43 42 40 39 38 37 36 37 38 38 39 40 42 44 45 45 45 45 45 46 46 46 47 49 51 53 54 54 55 56 57 59 62 64 66 68 70 71 72 73 73 72 72 72 71 72 72
103 101 98 94 90 90 89 87 86 84 83 83 83 82 80 79 77 74 70 67 67 67 66 66 65 64 63 63 62 60 58 57 58 58 56 54 52 50 48 47 46 44 43 42 41 39 38 39 39 39 40 41 43 45 46 46 47 47 47 47 47 48 48 49 49 49 50 51 52 53 55 57 59 61 63 64 67 69 70 71 71 72 72 73 73 74
103 102 99 95 92 91 90 88 87 86 84 84 85 84 83 81 78 74 72 70 69 68 68 68 67 66 65 64 63 63 62 61 61 60 58 56 55 53 51 50 49 48 47 46 45 43 42 42 42 42 42 42 43 44 45 46 47 48 48 49 49 50 49 49 49 50 50 51 52 52 53 54 56 58 59 61 63 64 66 67 67 68 69 71 72 73
101 100 98 95 93 93 92 90 88 85 83 85 87 86 85 83 79 75 74 73 71 70 69 69 69 68 67 66 65 65 64 64 63 62 60 58 57 55 54 52 52 51 50 50 49 48 47 46 44 44 45 45 45 46 46 46 47 48 49 50 51 52 52 52 52 53 52 53 53 53 53 54 55 56 57 58 60 61 62 64 64 64 65 67 68 69
100 98 96 94 95 96 94 91 87 84 83 86 88 87 85 84 81 78 77 75 73 72 72 71 72 71 70 68 67 66 66 66 65 64 62 61 59 58 56 55 54 53 53 53 52 51 51 50 48 47 47 47 47 48 48 48 48 48 49 50 52 53 53 53 53 54 54 55 55 56 56 56 56 56 57 58 59 59 60 62 62 62 62 64 65 65
98 96 95 95 96 95 92 88 86 86 86 87 88 87 85 84 82 80 79 78 76 76 75 74 74 74 73 71 69 69 68 68 67 65 64 62 61 60 58 57 56 55 55 55 54 54 53 52 51 51 50 50 50 50 51 51 51 50 50 51 51 53 53 53 54 54 55 56 56 57 58 58 58 58 58 59 59 59 59 60 61 61 60 60 61 62
97 95 94 94 94 92 89 88 89 89 88 88 89 89 86 84 83 81 80 80 79 78 78 78 77 76 76 74 72 71 70 69 68 67 65 64 63 62 60 59 58 58 57 57 56 55 55 54 54 53 53 53 52 52 53 53 53 53 53 52 52 53 54 55 55 56 56 56 57 57 58 59 60 61 61 61 60 59 59 60 60 60 60 59 59 60
97 96 94 93 92 89 87 89 92 92 91 91 91 90 87 85 84 82 81 81 80 80 80 80 80 79 79 77 75 73 72 71 70 69 67 66 65 64 63 62 61 60 59 58 58 57 57 56 56 56 56 56 56 56 56 56 56 57 57 56 55 55 55 55 56 57 58 58 58 58 58 59 61 62 63 62 61 60 60 60 59 59 58 58 58 59
99 98 95 92 91 88 87 90 93 92 92 93 92 91 89 87 85 84 82 82 82 82 81 82 83 82 81 79 78 76 75 74 73 71 70 69 67 66 66 65 63 62 62 61 60 60 59 59 59 59 59 59 59 59 59 59 59 60 60 60 59 58 57 57 57 58 58 58 58 59 60 61 62 63 64 64 63 61 60 59 59 59 58 58 58 58
102 99 96 93 91 88 87 90 92 92 93 94 93 92 91 89 87 86 84 83 83 83 83 83 84 84 83 81 79 78 77 76 75 73 72 71 70 69 68 67 66 65 64 63 62 62 62 62 62 62 62 62 62 62 63 63 63 63 63 62 62 61 60 60 59 59 58 58 59 60 61 62 63 65 66 66 65 62 60 58 58 58 57 58 59 58
104 101 98 96 93 89 88 90 92 93 93 94 94 94 93 92 90 88 86 85 84 84 83 83 84 84 84 82 80 79 79 78 77 75 74 73 72 71 70 69 69 68 67 67 66 65 65 65 65 65 65 66 66 66 67 67 67 66 66 65 65 64 63 63 62 61 60 60 60 61 61 63 64 65 66 67 66 64 61 59 58 57 56 57 58 58
104 103 102 99 94 91 91 92 93 91 91 93 95 95 95 94 92 90 88 86 85 85 85 84 84 85 85 84 83 81 80 79 78 77 75 74 74 73 72 72 71 71 70 69 69 69 68 68 69 69 69 70 71 71 71 71 70 70 69 69 68 67 66 66 65 64 63 62 62 63 63 63 64 65 67 68 67 65 62 60 58 56 55 55 56 57
Wind_Direction
258 256 255 254 254 254 254 254 255 257 256 253 252 250 247 248 249 251 256 259 258 258 260 262 266 272 280 295 307 314 331 345 252 196 183 177 177 178 184 189 194 194 182 175 181 187 179 171 169 170 172 168 163 165 169 172 172 170 169 166 160 153 147 141 135 129 123 116 110 105 100 95 92 89 87 84 82 80 78 76 74 71 69 67 65 62
254 253 254 256 257 256 255 255 255 255 255 252 249 247 244 244 244 244 250 255 254 254 255 257 261 266 271 282 294 301 315 326 245 201 193 184 188 188 192 199 202 202 192 180 183 194 190 177 171 173 175 169 163 166 170 173 174 174 173 170 164 158 151 145 139 133 126 119 114 109 103 98 94 90 87 85 82 81 78 75 72 69 67 65 63 60
254 254 255 257 256 255 253 252 251 251 251 249 246 244 242 241 240 239 244 250 252 251 251 254 257 263 265 268 280 285 293 303 256 202 197 196 205 200 197 204 206 208 200 187 185 195 197 184 173 175 178 171 166 168 172 174 176 176 177 175 169 163 157 151 145 138 132 126 120 115 109 103 97 92 89 86 83 81 78 76 72 68 65 63 61 58
255 255 254 254 253 252 250 248 247 247 247 245 243 241 239 238 237 236 239 245 249 248 247 250 252 258 260 256 264 272 279 286 261 204 205 216 225 213 200 201 207 209 204 192 186 192 198 190 176 174 177 173 170 172 173 175 177 179 181 180 174 169 163 157 152 147 141 134 129 123 116 109 102 96 90 87 82 80 77 75 72 69 65 62 59 56
256 255 254 253 252 250 249 248 247 246 244 243 241 239 238 238 237 236 236 240 246 248 246 247 247 252 256 249 249 261 268 271 254 213 220 231 233 221 203 196 200 207 205 195 188 190 195 189 178 175 175 173 172 174 175 177 179 182 184 184 180 175 169 165 160 156 151 145 139 132 125 118 110 102 95 88 83 78 74 72 71 69 66 62 58 55
255 255 253 251 250 249 248 247 246 245 244 243 241 240 240 240 239 237 236 236 242 247 246 246 247 248 250 244 240 249 255 257 248 221 222 230 229 221 203 188 190 200 204 195 187 191 193 188 181 175 172 171 174 177 179 180 182 185 187 187 185 181 178 175 171 168 163 157 151 145 138 131 123 115 106 95 86 79 74 70 68 68 68 65 61 55
251 251 250 248 248 249 248 246 245 244 244 243 241 241 243 243 241 238 236 235 238 244 246 248 248 246 246 242 237 241 244 247 247 227 218 219 216 210 193 177 179 191 199 193 187 192 194 188 180 173 169 170 176 182 186 188 188 189 190 189 189 188 187 186 184 181 178 173 167 161 156 150 142 134 126 113 98 86 76 71 67 66 66 66 64 59
247 250 249 247 247 248 246 245 246 246 246 244 243 244 244 244 241 238 237 235 236 241 245 248 249 246 244 240 235 237 237 237 243 234 218 214 206 195 182 169 170 184 194 192 188 192 194 187 177 170 167 171 178 186 193 194 193 193 193 192 193 194 194 194 194 193 191 190 185 179 176 171 164 157 151 143 124 102 81 65 55 55 59 61 63 60
247 249 245 244 245 244 243 245 247 247 246 245 244 244 243 242 241 238 235 233 234 237 241 244 245 243 240 237 234 235 234 230 235 236 222 213 203 189 176 164 161 175 189 192 190 192 191 183 175 169 169 174 181 188 194 197 196 195 195 196 197 198 200 200 200 199 199 199 198 195 193 191 187 182 179 179 178 137 34 19 14 12 23 34 42 49
242 240 238 238 238 238 241 244 245 244 244 245 245 242 241 239 238 235 230 229 229 230 235 238 238 238 236 234 232 231 230 225 226 234 225 210 202 191 178 164 156 162 178 189 192 191 187 181 176 172 174 179 183 186 190 194 197 197 197 199 200 203 204 204 204 204 204 204 205 205 206 208 206 206 210 220 246 283 317 336 344 346 348 355 2 12
235 232 231 230 231 235 240 243 241 241 243 244 243 242 240 238 237 233 227 226 224 225 231 230 229 234 233 230 231 228 227 222 220 228 227 213 201 193 184 171 158 155 165 182 191 190 186 183 180 177 179 182 183 185 189 193 198 200 201 203 204 207 208 209 210 209 209 208 209 211 215 220 220 220 225 234 251 275 297 315 328 334 336 339 341 346
230 226 224 225 230 235 239 239 237 239 241 241 241 240 240 239 237 233 227 223 220 224 228 224 224 232 232 228 229 226 222 221 218 222 227 221 208 197 191 183 170 161 162 174 187 191 190 190 186 182 182 186 186 189 193 197 201 205 207 209 210 211 213 214 214 214 215 214 213 214 218 225 229 231 236 241 253 268 284 301 314 323 327 329 332 337
228 224 221 225 233 237 237 237 235 234 236 238 240 240 240 238 236 233 228 222 220 225 227 223 224 232 233 230 229 224 221 221 219 219 223 225 216 203 197 191 182 174 169 172 183 192 196 196 191 186 186 190 192 196 199 202 207 210 211 213 214 216 216 216 216 217 220 221 220 220 221 226 232 237 243 247 254 264 276 291 302 310 319 323 326 331
229 228 226 228 234 237 235 234 230 227 234 240 241 242 241 238 235 232 227 222 222 226 227 224 226 233 235 235 231 226 224 223 221 219 219 224 222 211 204 198 192 186 180 179 183 190 198 200 196 192 193 196 198 202 207 211 214 215 215 215 216 218 219 218 218 219 221 223 225 226 226 229 232 237 245 250 254 261 270 280 288 298 308 314 319 324
229 230 229 228 231 234 233 233 230 230 238 243 242 239 235 232 231 230 227 224 224 226 226 224 225 232 235 234 231 227 225 224 223 221 218 221 224 219 211 206 200 195 191 190 190 191 195 199 201 201 201 203 206 210 215 219 221 221 220 219 219 221 221 221 222 223 225 227 228 229 230 233 234 236 241 247 253 258 264 269 277 287 295 301 306 312
227 228 229 227 228 231 232 232 232 233 235 238 235 225 224 228 231 231 229 227 226 226 225 221 224 232 234 231 231 229 226 225 223 221 219 217 221 222 218 214 208 203 200 199 199 197 197 199 203 207 210 212 215 219 223 226 227 227 225 225 225 225 224 224 224 225 228 230 232 233 234 236 238 239 241 245 249 254 258 262 268 276 284 291 297 302
227 227 229 230 229 230 231 231 232 231 230 233 226 212 219 230 230 227 227 226 225 223 220 217 221 232 234 230 230 230 228 227 224 222 221 217 216 219 222 219 214 209 206 205 205 204 203 204 206 211 216 220 223 227 230 232 232 233 232 232 231 229 228 227 227 227 227 229 233 236 238 240 242 242 244 246 249 253 257 260 264 270 277 285 292 297
230 230 232 234 232 232 233 235 235 232 231 231 221 213 221 227 219 218 220 219 221 219 218 216 218 228 233 229 227 226 225 225 224 222 222 219 215 216 221 223 218 214 211 210 210 207 206 209 211 214 218 221 226 230 233 235 236 236 236 237 236 234 232 231 231 231 230 231 233 236 240 243 245 245 246 249 252 255 258 261 265 269 275 282 288 293
229 230 232 232 232 232 234 235 234 230 227 225 221 217 218 212 205 211 212 213 218 219 217 217 218 224 230 227 225 225 223 223 224 223 222 220 216 215 219 222 221 218 215 214 216 214 212 211 213 217 220 222 226 229 232 234 236 237 237 238 238 237 236 235 236 236 235 235 236 237 240 243 246 248 249 250 253 255 259 263 267 270 274 280 285 288
226 228 228 227 227 228 229 229 227 224 221 220 218 214 208 201 199 204 206 205 212 217 216 216 217 222 226 228 227 227 226 225 224 224 223 221 219 218 219 220 221 222 220 218 219 221 222 220 218 220 223 226 228 230 232 234 236 237 237 238 238 238 237 238 239 240 241 241 241 241 242 244 247 249 251 253 254 257 261 264 268 272 275 279 282 285
225 226 227 227 226 225 224 223 221 219 218 217 213 207 202 198 199 203 201 199 206 214 217 218 218 221 226 229 229 229 230 229 227 227 226 223 222 223 223 222 221 222 223 223 223 224 227 227 226 224 225 228 231 233 235 236 237 238 237 237 236 236 237 239 240 241 243 245 246 247 246 247 249 251 253 255 257 260 264 266 270 273 276 278 279 282
225 225 226 228 227 224 222 220 218 216 215 214 211 206 202 200 202 204 202 201 205 212 217 220 220 220 224 228 229 229 230 230 229 229 229 228 227 228 229 228 225 224 225 226 226 227 229 230 230 229 229 231 233 235 237 238 239 239 239 238 237 238 239 241 242 243 245 248 249 250 251 251 253 254 256 259 261 263 266 268 270 272 275 276 278 279
226 224 225 228 227 223 220 220 219 216 214 213 210 207 203 200 199 198 200 203 204 208 216 224 222 218 221 227 228 229 229 229 228 228 229 229 229 230 231 231 230 228 227 228 228 229 230 231 231 230 230 230 232 234 236 239 241 241 241 240 240 240 241 242 244 246 248 250 251 252 253 254 255 257 259 261 263 265 267 269 270 271 273 275 277 278
226 224 224 225 226 223 219 219 219 217 214 211 208 206 201 197 195 194 199 202 201 203 210 223 224 216 214 221 224 227 228 228 228 226 226 227 228 228 229 229 229 229 229 228 229 230 231 232 233 233 231 230 229 230 232 236 239 241 241 242 242 242 242 243 246 248 250 251 253 254 255 256 258 259 261 263 264 266 268 269 271 271 273 275 277 279
225 225 224 225 226 224 221 219 219 219 216 211 207 205 200 197 195 195 199 196 192 197 200 217 227 215 207 213 215 218 224 226 227 227 226 226 227 228 228 228 229 229 228 228 228 230 231 232 234 235 234 234 233 233 233 235 238 240 241 243 244 245 246 247 249 250 252 253 254 255 256 257 259 260 262 264 265 267 268 269 270 271 272 274 277 280
225 225 225 225 226 226 224 221 220 220 217 212 209 207 204 202 198 196 196 186 183 195 198 215 228 218 208 211 210 211 217 221 225 227 227 227 227 229 230 230 231 231 230 230 230 230 231 233 234 235 236 237 238 238 238 238 239 240 241 242 243 246 247 249 251 252 253 254 255 256 257 257 259 260 262 263 265 267 268 269 270 271 272 274 276 279
225 224 224 225 225 225 225 222 219 218 216 212 211 209 207 206 202 199 193 183 185 197 198 214 229 223 215 213 211 210 212 216 221 224 226 228 228 230 232 233 233 234 234 234 234 234 233 234 235 235 237 238 239 240 241 242 242 241 242 242 243 244 246 248 250 251 253 254 255 256 257 258 259 260 261 263 265 266 267 268 269 270 272 273 275 278
225 224 224 224 224 224 224 223 220 218 216 213 212 211 209 208 206 200 192 189 196 198 194 211 227 227 221 216 214 215 212 213 219 221 223 226 227 229 231 233 234 235 236 236 237 238 237 236 236 236 237 238 239 240 241 243 244 244 244 245 245 245 245 246 248 249 251 253 254 256 257 258 259 260 262 263 264 265 266 268 269 270 272 274 276 278
225 224 223 223 224 223 224 224 222 219 216 214 212 211 211 209 207 201 195 199 203 198 199 213 223 231 231 221 214 217 216 215 217 218 219 220 221 225 228 231 234 235 236 236 237 239 239 239 238 237 238 239 240 240 240 242 244 245 246 247 248 248 248 248 249 250 251 253 255 257 258 259 260 261 262 263 264 265 266 267 269 271 273 274 276 278
224 224 223 223 223 223 223 224 223 220 217 214 213 212 212 211 208 204 201 204 205 202 209 219 222 232 241 234 221 214 212 211 209 209 210 210 211 216 221 226 231 234 236 237 237 238 240 240 241 240 240 241 242 242 242 242 243 244 245 247 248 249 250 250 251 252 253 254 256 258 260 261 262 262 263 264 265 266 268 269 270 271 273 274 276 277
224 224 223 222 222 223 223 223 224 222 218 215 214 213 213 213 211 208 206 207 206 206 215 223 222 227 238 242 235 220 207 204 202 202 206 208 207 210 214 221 227 232 236 238 239 240 241 242 243 244 244 245 245 246 246 245 245 245 246 247 248 249 250 251 252 253 254 255 257 259 261 262 262 264 264 266 267 268 269 270 272 273 274 274 276 277
223 223 223 223 222 222 223 223 223 223 220 217 215 214 214 214 213 212 210 209 208 208 216 223 223 224 228 233 236 228 213 204 203 202 206 210 211 211 213 218 224 228 233 236 239 240 241 242 243 244 245 246 247 248 248 248 248 248 249 249 249 249 250 252 253 254 255 257 258 260 261 262 262 263 264 265 266 268 269 271 272 273 274 275 276 278
223 223 223 223 222 222 223 223 223 223 222 219 216 216 215 215 215 214 213 212 212 212 216 220 223 226 227 229 234 234 224 214 210 208 208 212 216 217 217 218 221 225 230 233 236 238 239 241 243 244 245 246 247 249 250 250 251 251 252 252 252 252 253 254 255 256 257 258 259 260 261 262 263 264 264 265 266 267 269 270 272 273 274 276 277 279
224 223 223 223 222 222 223 223 222 223 222 220 218 218 217 216 216 216 215 216 216 215 217 220 223 228 233 235 237 238 234 226 220 216 213 215 219 221 222 222 223 226 229 233 236 237 238 239 241 243 244 245 247 248 250 251 252 253 254 255 256 256 256 256 257 258 258 259 260 261 261 263 263 264 264 265 266 267 268 270 271 272 274 275 277 279
224 224 223 223 222 222 223 223 222 221 222 222 221 221 220 218 217 218 218 219 219 218 218 221 224 228 234 237 238 240 239 235 230 226 222 219 220 223 226 227 227 229 232 235 239 241 242 241 241 242 244 245 247 248 250 251 252 253 255 256 257 257 258 258 259 259 260 261 261 261 262 262 263 264 264 265 265 267 268 269 271 272 273 274 276 278
225 224 224 223 222 222 223 223 222 221 222 223 223 223 222 220 219 219 220 221 221 220 220 222 225 228 232 235 236 238 240 239 237 235 231 228 226 227 229 230 230 231 234 237 241 245 247 248 248 247 247 247 248 249 250 251 252 253 254 255 256 257 258 259 260 260 260 260 261 261 261 262 263 264 265 266 266 267 268 269 270 271 273 274 276 277
225 225 224 224 223 222 223 223 221 220 221 223 224 225 224 222 221 220 220 221 223 222 222 223 226 228 232 235 236 236 237 238 238 238 238 236 233 231 230 231 232 232 234 237 241 245 249 252 254 254 253 253 252 251 251 252 253 254 255 256 257 257 258 259 260 260 260 260 261 262 262 263 264 265 266 267 268 268 268 268 269 271 273 275 276 277
226 225 224 224 223 223 223 223 221 220 220 222 224 225 225 224 223 221 220 222 224 224 223 225 227 229 231 235 236 237 237 236 237 239 240 239 237 234 232 232 234 235 237 239 242 245 248 251 254 256 258 258 258 258 256 256 256 256 257 257 257 258 259 260 260 260 260 261 262 263 264 265 266 266 266 267 268 268 268 269 269 270 272 273 274 275
226 225 225 224 224 224 224 223 222 221 220 222 224 225 226 226 225 223 222 223 225 225 225 227 229 229 231 234 236 237 237 236 237 239 241 240 240 238 236 236 238 239 241 243 245 247 249 251 252 255 257 259 262 263 263 262 261 261 261 260 260 260 260 260 261 262 263 264 264 265 265 266 267 268 268 268 269 269 270 271 271 271 272 272 273 274
226 226 225 224 223 224 225 224 223 222 221 222 224 225 226 226 227 225 223 223 226 227 227 228 230 230 231 233 236 238 238 236 236 238 240 241 241 241 240 241 242 243 244 246 248 249 251 252 253 254 255 258 261 264 265 266 265 265 266 266 265 264 263 263 264 265 266 267 267 267 266 266 267 268 269 270 270 271 271 272 272 272 273 273 273 274
227 226 226 224 223 223 224 224 223 222 221 223 224 225 226 226 227 227 225 224 227 229 228 229 230 231 231 233 235 237 237 236 237 238 239 241 242 243 243 244 245 246 247 247 249 250 252 253 255 255 255 256 259 263 265 266 266 267 267 268 268 267 267 267 267 267 267 267 267 267 268 268 268 268 269 270 271 271 272 273 273 274 274 274 274 275
227 227 226 224 223 223 223 223 223 222 221 223 224 225 225 226 226 227 228 227 228 229 229 230 231 231 232 233 234 236 237 237 238 239 239 241 242 244 245 246 247 248 248 248 250 251 252 253 255 256 256 257 259 261 264 265 266 266 266 267 267 267 268 268 268 268 269 269 268 268 268 269 270 270 271 271 272 273 273 274 274 275 275 276 276 276
228 227 226 225 224 223 223 222 222 220 220 223 225 224 225 225 224 225 227 229 229 229 230 231 232 232 232 233 234 235 237 238 239 240 240 241 242 244 245 247 248 249 249 249 250 251 252 253 253 254 256 258 259 261 262 264 265 265 265 265 265 266 267 267 269 270 270 271 271 271 270 271 272 272 273 274 274 275 275 276 276 276 276 277 277 278
227 227 226 225 224 224 223 221 221 220 220 223 225 225 224 224 224 223 225 228 229 230 231 232 233 234 233 233 234 236 237 239 240 241 242 242 243 244 246 248 249 250 251 251 251 251 252 253 253 254 255 257 258 260 262 263 265 266 265 264 264 265 266 267 268 270 270 272 273 273 273 274 274 275 275 276 276 277 278 279 279 278 278 278 279 280
227 227 226 225 225 224 223 222 222 222 221 223 225 226 225 224 223 223 224 226 228 231 232 232 233 234 235 234 235 236 238 240 241 242 243 244 245 246 247 248 249 250 251 252 253 253 253 254 255 256 257 258 259 260 261 263 265 266 266 265 264 264 265 266 266 268 269 271 272 273 274 275 276 276 277 277 278 279 280 280 280 280 279 279 278 279
227 227 226 225 225 224 223 222 223 223 222 223 225 226 226 225 224 223 224 225 227 229 232 234 234 235 235 236 236 237 239 240 242 243 244 245 246 247 248 248 249 250 251 252 254 255 255 256 257 258 259 260 261 261 262 263 264 266 267 266 265 265 265 265 265 265 267 268 270 271 273 275 276 277 277 278 279 280 280 280 280 280 279 279 279 278
227 227 227 226 225 224 222 223 224 224 223 223 224 226 226 226 225 225 224 225 226 228 231 234 235 235 235 236 237 238 239 240 242 243 245 246 247 248 249 249 249 250 251 251 253 255 256 257 258 260 261 262 262 263 263 263 264 265 266 267 266 266 266 265 265 265 265 266 267 269 271 272 273 275 276 278 279 279 280 280 280 279 279 279 279 278
226 226 226 226 225 224 222 223 224 224 224 224 224 225 226 227 226 226 226 226 227 228 230 233 235 236 236 236 237 238 239 241 242 244 245 246 247 248 249 250 250 251 251 252 253 254 256 257 259 261 262 263 264 264 264 264 264 265 265 266 267 267 267 267 267 267 267 267 267 268 269 270 271 272 274 276 277 278 279 280 280 279 279 279 279 279
225 226 225 225 225 224 223 223 224 223 223 224 224 225 226 227 226 226 226 227 228 229 230 232 235 237 238 238 238 239 240 241 242 243 245 246 247 248 249 250 251 251 252 252 253 254 255 257 259 260 261 262 263 263 263 263 263 264 265 266 266 267 267 267 268 268 269 269 269 269 269 269 270 272 273 275 276 278 279 280 280 280 280 281 281 281
224 225 224 224 224 223 223 224 224 223 223 223 223 224 225 226 226 226 226 226 228 229 230 231 234 237 239 239 239 239 240 241 242 243 244 246 247 248 248 249 250 251 252 253 254 255 256 257 258 259 260 260 261 261 261 262 263 263 264 265 266 266 266 266 267 268 269 269 270 270 270 270 270 271 273 274 276 279 280 281 281 280 280 280 279 280
223 223 223 223 223 222 223 224 224 223 222 223 223 223 224 224 225 225 226 226 227 229 230 231 233 235 238 239 240 239 240 241 242 243 244 245 246 247 248 249 249 250 251 253 254 254 255 256 257 257 258 258 258 259 260 261 262 263 264 265 265 266 266 266 266 267 268 269 270 270 271 271 271 271 272 273 275 277 279 280 279 279 278 277 277 277
Height
10915 10914 10913 10915 10920 10925 10928 10928 10928 10930 10935 10939 10941 10942 10943 10943 10943 10944 10944 10945 10948 10951 10952 10953 10954 10953 10953 10953 10952 10950 10950 10950 10950 10950 10950 10951 10951 10953 10955 10956 10957 10958 10958 10959 10960 10962 10963 10964 10965 10966 10967 10969 10972 10975 10978 10980 10981 10982 10983 10985 10986 10987 10988 10989 10990 10991 10992 10993 10993 10994 10994 10994 10994 10994 10994 10994 10994 10994 10993 10993 10993 10992 10992 10991 10991 10990
10906 10905 10907 10911 10916 10920 10922 10924 10924 10925 10929 10934 10936 10937 10939 10938 10938 10942 10942 10942 10945 10948 10950 10951 10952 10952 10951 10951 10950 10949 10949 10949 10949 10949 10950 10950 10950 10951 10953 10955 10956 10957 10957 10958 10959 10961 10962 10963 10964 10966 10968 10969 10971 10974 10977 10979 10981 10982 10983 10984 10985 10987 10988 10989 10990 10991 10992 10993 10993 10993 10994 10994 10994 10994 10994 10994 10994 10994 10994 10993 10993 10992 10992 10992 10991 10991
10898 10899 10905 10908 10910 10913 10915 10917 10918 10919 10922 10928 10930 10931 10933 10931 10933 10939 10939 10939 10942 10945 10947 10949 10949 10950 10950 10950 10949 10948 10948 10947 10948 10948 10949 10949 10950 10950 10951 10952 10954 10955 10956 10956 10957 10959 10961 10962 10963 10965 10968 10969 10971 10973 10976 10978 10980 10981 10982 10984 10985 10986 10987 10989 10990 10991 10991 10992 10993 10993 10993 10994 10994 10994 10994 10994 10994 10994 10994 10993 10993 10993 10992 10992 10992 10992
10892 10895 10901 10902 10903 10905 10907 10909 10911 10913 10916 10920 10923 10924 10924 10924 10930 10935 10936 10937 10939 10940 10944 10946 10947 10947 10947 10948 10947 10946 10946 10946 10946 10947 10947 10948 10949 10949 10949 10950 10952 10954 10955 10955 10956 10958 10960 10962 10963 10964 10967 10969 10970 10972 10975 10977 10979 10980 10982 10983 10984 10985 10987 10988 10989 10990 10991 10992 10992 10992 10993 10993 10993 10993 10993 10993 10993 10993 10993 10993 10993 10993 10992 10992 10992 10992
10886 10891 10896 10896 10896 10898 10899 10902 10904 10906 10908 10911 10916 10916 10915 10920 10926 10931 10934 10935 10935 10936 10940 10943 10944 10944 10945 10946 10946 10945 10945 10945 10945 10945 10946 10947 10948 10948 10947 10948 10950 10952 10953 10954 10955 10956 10958 10960 10961 10962 10964 10967 10970 10973 10975 10976 10978 10980 10981 10982 10984 10985 10986 10988 10989 10990 10991 10991 10991 10992 10992 10992 10993 10993 10993 10993 10993 10993 10993 10993 10993 10992 10992 10992 10992 10992
10880 10885 10890 10889 10889 10891 10893 10896 10896 10899 10901 10905 10909 10908 10909 10917 10923 10928 10931 10932 10932 10932 10935 10939 10941 10941 10943 10944 10944 10943 10944 10943 10943 10944 10945 10946 10947 10947 10946 10946 10948 10950 10952 10953 10954 10955 10957 10958 10960 10961 10963 10966 10970 10972 10974 10975 10977 10978 10980 10981 10983 10985 10986 10987 10988 10989 10990 10990 10991 10991 10991 10992 10992 10992 10993 10993 10993 10993 10993 10992 10992 10992 10992 10992 10992 10992
10874 10879 10884 10883 10884 10886 10888 10888 10889 10893 10897 10900 10902 10903 10907 10914 10920 10924 10927 10929 10930 10929 10932 10935 10937 10938 10939 10941 10941 10941 10942 10942 10942 10943 10944 10945 10946 10946 10946 10945 10946 10949 10951 10952 10953 10954 10956 10957 10959 10961 10964 10966 10970 10972 10973 10975 10976 10978 10979 10981 10982 10984 10985 10986 10987 10988 10989 10989 10990 10990 10990 10991 10991 10992 10992 10992 10992 10992 10992 10992 10992 10992 10992 10992 10992 10991
10869 10875 10879 10878 10880 10881 10881 10881 10885 10890 10892 10893 10896 10901 10905 10909 10914 10919 10923 10927 10927 10927 10930 10931 10932 10934 10935 10937 10939 10939 10940 10941 10941 10942 10944 10945 10945 10945 10945 10944 10944 10947 10950 10951 10952 10954 10955 10957 10959 10962 10964 10966 10969 10971 10973 10975 10976 10978 10979 10980 10981 10982 10983 10984 10986 10987 10988 10988 10989 10989 10989 10990 10991 10991 10992 10992 10992 10992 10992 10992 10992 10992 10992 10991 10991 10991
10867 10873 10873 10874 10876 10875 10874 10877 10883 10886 10886 10888 10893 10898 10900 10903 10909 10914 10920 10924 10924 10925 10928 10927 10926 10928 10930 10933 10936 10936 10937 10939 10940 10941 10943 10944 10945 10945 10944 10943 10943 10945 10949 10951 10952 10953 10955 10957 10959 10961 10963 10965 10967 10970 10972 10975 10977 10978 10979 10979 10980 10980 10981 10982 10984 10985 10986 10987 10988 10988 10989 10989 10990 10990 10991 10991 10991 10991 10991 10991 10991 10991 10991 10991 10991 10991
10865 10868 10868 10872 10871 10867 10869 10875 10880 10879 10880 10885 10889 10892 10894 10898 10902 10907 10915 10918 10920 10924 10923 10920 10921 10920 10924 10931 10932 10932 10935 10937 10939 10939 10940 10942 10944 10944 10944 10943 10942 10944 10947 10951 10952 10954 10955 10957 10958 10960 10961 10963 10965 10968 10971 10973 10975 10976 10977 10978 10978 10979 10980 10981 10982 10983 10984 10986 10987 10987 10988 10989 10989 10990 10990 10990 10990 10990 10991 10990 10990 10990 10990 10990 10990 10990
10859 10863 10866 10868 10864 10862 10868 10873 10874 10874 10877 10882 10885 10886 10889 10893 10896 10902 10908 10911 10917 10920 10912 10910 10914 10914 10919 10926 10926 10928 10932 10935 10937 10937 10938 10941 10942 10943 10943 10943 10942 10942 10945 10950 10953 10954 10955 10957 10958 10959 10960 10962 10965 10967 10968 10970 10972 10974 10975 10976 10977 10977 10978 10979 10981 10982 10983 10985 10986 10986 10987 10987 10988 10989 10989 10989 10989 10990 10990 10990 10990 10990 10989 10989 10989 10989
10852 10858 10862 10861 10858 10860 10865 10868 10870 10871 10875 10878 10880 10882 10885 10889 10892 10897 10902 10907 10912 10906 10897 10904 10912 10910 10915 10920 10920 10925 10930 10932 10933 10934 10937 10939 10941 10942 10942 10942 10942 10942 10944 10948 10952 10954 10955 10956 10957 10958 10960 10962 10964 10965 10966 10968 10970 10972 10973 10975 10976 10977 10978 10979 10980 10981 10982 10983 10984 10985 10986 10986 10987 10987 10988 10988 10988 10988 10988 10989 10989 10989 10988 10988 10988 10988
10845 10852 10855 10855 10855 10859 10862 10865 10867 10868 10871 10873 10875 10878 10882 10885 10889 10892 10896 10900 10900 10891 10891 10906 10912 10907 10908 10913 10917 10924 10927 10928 10930 10932 10935 10936 10938 10941 10941 10942 10942 10942 10943 10945 10950 10954 10955 10956 10957 10958 10960 10961 10963 10965 10966 10967 10968 10970 10972 10974 10976 10976 10977 10978 10979 10980 10981 10982 10983 10984 10984 10985 10985 10986 10986 10986 10987 10987 10987 10987 10987 10987 10987 10987 10987 10987
10842 10847 10852 10854 10854 10855 10858 10860 10862 10864 10866 10870 10873 10876 10879 10882 10884 10886 10888 10891 10890 10887 10895 10908 10910 10905 10904 10908 10915 10921 10923 10925 10928 10930 10933 10934 10935 10938 10939 10940 10941 10941 10943 10944 10947 10951 10954 10956 10957 10957 10959 10960 10962 10963 10964 10966 10967 10969 10971 10973 10974 10975 10975 10976 10977 10978 10979 10980 10981 10982 10982 10983 10983 10984 10984 10984 10985 10985 10986 10986 10986 10986 10986 10986 10985 10985
10839 10844 10848 10849 10848 10849 10853 10854 10857 10862 10865 10868 10871 10874 10876 10877 10878 10880 10883 10885 10885 10888 10897 10906 10907 10901 10897 10901 10909 10916 10920 10923 10926 10927 10930 10931 10932 10935 10937 10938 10939 10940 10941 10943 10945 10948 10951 10954 10956 10957 10958 10959 10960 10962 10963 10964 10966 10967 10969 10971 10972 10973 10974 10975 10976 10977 10978 10978 10979 10980 10980 10981 10981 10982 10982 10982 10983 10983 10984 10984 10984 10984 10984 10984 10984 10984
10834 10838 10840 10840 10842 10845 10848 10850 10854 10860 10862 10865 10869 10871 10870 10871 10875 10877 10880 10881 10882 10888 10895 10901 10901 10891 10887 10896 10905 10911 10916 10918 10922 10924 10926 10929 10930 10932 10934 10935 10936 10938 10939 10942 10944 10946 10948 10951 10953 10955 10956 10957 10959 10960 10961 10962 10963 10965 10967 10969 10970 10971 10972 10973 10974 10975 10976 10976 10976 10977 10978 10979 10979 10980 10980 10981 10981 10981 10981 10981 10982 10982 10982 10982 10982 10982
10829 10832 10831 10834 10839 10840 10842 10845 10851 10856 10859 10862 10866 10866 10865 10869 10874 10874 10875 10877 10880 10884 10888 10893 10892 10880 10880 10894 10902 10906 10911 10913 10917 10920 10921 10925 10927 10929 10930 10931 10934 10936 10937 10939 10942 10944 10947 10948 10950 10952 10954 10955 10956 10957 10958 10960 10961 10963 10965 10966 10967 10968 10969 10971 10972 10973 10973 10974 10974 10975 10976 10976 10977 10978 10978 10978 10979 10979 10979 10979 10980 10980 10980 10980 10980 10980
10825 10825 10826 10832 10834 10834 10837 10842 10848 10854 10857 10860 10862 10861 10863 10869 10871 10870 10871 10873 10875 10878 10880 10884 10884 10875 10876 10889 10895 10898 10903 10907 10910 10914 10917 10921 10924 10926 10926 10928 10931 10933 10935 10937 10939 10942 10944 10945 10947 10948 10950 10952 10953 10955 10956 10957 10959 10961 10962 10963 10964 10965 10966 10968 10969 10970 10971 10971 10972 10973 10973 10974 10975 10975 10976 10976 10976 10976 10976 10977 10977 10978 10978 10978 10977 10977
10818 10818 10821 10827 10827 10828 10834 10840 10846 10851 10854 10856 10856 10858 10864 10867 10866 10866 10868 10870 10871 10874 10877 10878 10878 10874 10873 10880 10886 10890 10895 10900 10905 10909 10913 10917 10920 10922 10923 10924 10928 10930 10933 10935 10937 10939 10940 10942 10943 10945 10947 10949 10950 10952 10954 10955 10957 10958 10959 10960 10961 10962 10964 10965 10965 10966 10968 10969 10970 10971 10971 10971 10972 10973 10973 10974 10974 10974 10974 10975 10975 10975 10976 10975 10975 10975
10809 10810 10813 10817 10818 10823 10830 10837 10843 10846 10848 10849 10852 10856 10860 10861 10862 10863 10865 10867 10868 10869 10871 10871 10871 10872 10870 10873 10881 10886 10890 10897 10902 10905 10909 10913 10916 10918 10919 10922 10925 10927 10930 10932 10934 10937 10938 10939 10941 10942 10944 10946 10947 10949 10951 10953 10954 10955 10956 10957 10958 10960 10961 10961 10962 10963 10965 10966 10967 10968 10968 10969 10969 10970 10970 10971 10971 10971 10972 10973 10973 10973 10973 10973 10973 10972
10800 10803 10806 10808 10812 10819 10826 10833 10836 10838 10840 10843 10847 10851 10854 10856 10858 10860 10862 10864 10864 10864 10865 10866 10867 10870 10869 10872 10878 10883 10887 10893 10898 10902 10906 10909 10913 10915 10917 10920 10922 10925 10927 10929 10931 10934 10935 10937 10938 10940 10942 10943 10945 10947 10949 10950 10951 10952 10953 10954 10955 10957 10958 10958 10959 10961 10962 10963 10964 10964 10965 10966 10966 10967 10967 10968 10968 10969 10970 10970 10970 10971 10971 10970 10970 10970
10793 10798 10800 10802 10808 10816 10822 10825 10826 10829 10833 10837 10841 10845 10849 10852 10855 10858 10861 10861 10861 10861 10862 10863 10865 10868 10868 10869 10873 10877 10882 10887 10893 10898 10902 10906 10910 10912 10914 10917 10920 10922 10924 10926 10928 10930 10932 10934 10936 10938 10940 10941 10944 10945 10947 10947 10948 10949 10950 10950 10952 10954 10955 10956 10957 10958 10959 10960 10960 10961 10962 10962 10963 10963 10964 10965 10966 10966 10967 10968 10968 10968 10967 10967 10967 10967
10786 10791 10794 10795 10802 10809 10814 10816 10819 10824 10828 10832 10838 10842 10847 10851 10855 10858 10859 10858 10859 10861 10861 10861 10863 10866 10867 10867 10869 10873 10876 10881 10887 10892 10896 10900 10905 10908 10911 10914 10917 10919 10921 10923 10925 10927 10928 10930 10932 10934 10936 10938 10940 10942 10943 10944 10944 10945 10946 10947 10949 10950 10951 10952 10954 10955 10956 10956 10956 10958 10958 10958 10959 10960 10961 10961 10962 10963 10964 10965 10965 10965 10964 10963 10963 10963
10777 10782 10786 10788 10793 10800 10805 10809 10813 10818 10824 10830 10836 10840 10844 10849 10852 10853 10854 10856 10859 10861 10861 10860 10859 10863 10865 10864 10866 10869 10872 10876 10880 10885 10889 10893 10898 10901 10904 10907 10911 10914 10917 10919 10921 10922 10924 10926 10928 10930 10932 10934 10935 10936 10938 10939 10940 10941 10943 10944 10945 10946 10947 10949 10951 10952 10952 10952 10953 10954 10954 10954 10955 10956 10957 10958 10959 10959 10960 10961 10961 10961 10960 10960 10960 10960
10768 10774 10779 10781 10785 10792 10798 10804 10810 10816 10822 10829 10833 10836 10841 10843 10846 10849 10851 10854 10858 10858 10859 10857 10855 10859 10862 10862 10864 10866 10868 10872 10875 10879 10883 10887 10891 10894 10897 10901 10904 10907 10910 10913 10915 10917 10920 10922 10924 10926 10928 10929 10930 10932 10933 10934 10935 10937 10939 10940 10941 10941 10944 10946 10947 10948 10948 10948 10949 10949 10950 10951 10951 10952 10953 10954 10955 10955 10956 10957 10957 10957 10957 10956 10956 10956
10759 10766 10770 10773 10779 10786 10794 10802 10808 10812 10818 10824 10828 10832 10836 10838 10842 10845 10847 10851 10853 10853 10855 10854 10851 10853 10858 10859 10862 10863 10865 10868 10871 10874 10877 10881 10885 10888 10891 10895 10898 10901 10904 10906 10909 10912 10915 10917 10919 10921 10923 10925 10926 10927 10928 10930 10931 10932 10934 10935 10935 10937 10940 10942 10942 10943 10943 10944 10944 10945 10946 10947 10947 10948 10949 10950 10950 10951 10952 10953 10953 10953 10953 10953 10952 10952
10750 10756 10762 10767 10773 10780 10787 10794 10800 10804 10810 10817 10821 10825 10829 10833 10837 10840 10843 10848 10849 10849 10851 10849 10845 10849 10854 10857 10859 10861 10863 10865 10867 10870 10873 10876 10881 10884 10887 10890 10893 10895 10898 10901 10904 10907 10909 10911 10914 10916 10918 10920 10921 10922 10924 10925 10926 10928 10929 10930 10930 10932 10935 10936 10937 10938 10939 10939 10940 10940 10941 10942 10943 10944 10945 10946 10946 10947 10948 10949 10949 10949 10949 10949 10948 10948
10740 10747 10754 10759 10766 10772 10778 10785 10791 10797 10804 10810 10814 10818 10823 10827 10831 10836 10841 10843 10843 10846 10847 10843 10841 10845 10850 10855 10857 10859 10860 10862 10864 10867 10869 10872 10876 10878 10881 10884 10887 10889 10892 10895 10898 10900 10903 10905 10907 10910 10912 10914 10915 10917 10918 10920 10921 10923 10924 10925 10926 10928 10930 10931 10932 10933 10933 10934 10935 10935 10936 10938 10940 10940 10941 10941 10942 10942 10943 10944 10944 10945 10944 10944 10944 10944
10729 10737 10745 10751 10758 10765 10771 10776 10782 10790 10797 10802 10808 10812 10816 10820 10825 10830 10835 10837 10839 10843 10841 10837 10840 10845 10847 10852 10855 10856 10859 10861 10863 10865 10867 10868 10870 10872 10875 10878 10880 10882 10885 10889 10892 10894 10896 10898 10900 10903 10905 10907 10909 10911 10913 10915 10916 10918 10920 10921 10922 10924 10925 10926 10927 10928 10928 10929 10929 10929 10931 10934 10935 10936 10936 10937 10937 10938 10938 10939 10940 10940 10940 10940 10940 10940
10718 10726 10735 10743 10750 10757 10762 10767 10774 10782 10789 10796 10801 10806 10810 10814 10819 10824 10829 10832 10836 10840 10837 10836 10842 10845 10843 10846 10850 10853 10857 10859 10861 10863 10863 10864 10866 10868 10870 10872 10874 10876 10879 10882 10885 10887 10889 10891 10893 10897 10899 10901 10903 10904 10907 10909 10910 10913 10914 10916 10918 10919 10920 10922 10923 10923 10924 10924 10924 10924 10926 10929 10930 10931 10931 10932 10932 10933 10933 10934 10935 10935 10935 10935 10935 10936
10708 10716 10726 10734 10742 10748 10754 10759 10765 10773 10781 10788 10794 10799 10803 10808 10813 10818 10823 10827 10831 10836 10835 10836 10842 10843 10839 10839 10841 10847 10853 10856 10857 10859 10859 10861 10863 10865 10866 10868 10870 10872 10874 10876 10879 10881 10883 10886 10888 10891 10894 10895 10897 10898 10901 10903 10905 10908 10909 10911 10912 10913 10914 10917 10917 10918 10919 10919 10919 10920 10922 10923 10924 10925 10926 10926 10927 10928 10928 10929 10929 10929 10929 10929 10930 10931
10698 10707 10717 10724 10732 10740 10745 10751 10757 10764 10772 10780 10787 10792 10797 10802 10808 10812 10817 10821 10825 10829 10830 10833 10839 10839 10833 10830 10833 10839 10847 10851 10853 10855 10856 10858 10860 10862 10864 10865 10867 10868 10870 10871 10873 10875 10877 10880 10882 10885 10887 10889 10891 10892 10894 10897 10900 10902 10903 10904 10905 10907 10910 10912 10913 10913 10914 10914 10915 10916 10916 10917 10918 10919 10920 10920 10921 10922 10923 10924 10923 10922 10923 10923 10925 10926
10688 10698 10707 10714 10723 10731 10736 10742 10749 10754 10762 10771 10779 10785 10791 10796 10800 10804 10809 10815 10819 10823 10826 10831 10834 10830 10824 10825 10829 10835 10841 10846 10848 10850 10852 10854 10856 10859 10860 10861 10863 10864 10865 10867 10868 10870 10872 10874 10876 10878 10880 10882 10884 10886 10888 10891 10894 10895 10895 10897 10899 10902 10906 10907 10907 10908 10909 10909 10910 10911 10910 10910 10912 10912 10913 10914 10915 10916 10917 10918 10917 10917 10917 10918 10919 10921
10678 10688 10696 10703 10714 10722 10726 10733 10739 10745 10753 10764 10773 10778 10783 10787 10792 10798 10805 10809 10812 10817 10821 10824 10826 10823 10821 10825 10829 10831 10834 10839 10843 10846 10849 10851 10853 10855 10856 10857 10858 10860 10861 10863 10864 10865 10867 10869 10870 10872 10874 10876 10878 10880 10882 10885 10887 10888 10889 10891 10894 10897 10899 10899 10900 10902 10903 10903 10905 10905 10904 10905 10905 10905 10906 10908 10909 10911 10912 10912 10911 10911 10911 10912 10914 10916
10668 10677 10685 10694 10703 10712 10717 10721 10728 10738 10749 10758 10765 10770 10773 10780 10788 10794 10799 10801 10805 10809 10813 10816 10820 10820 10819 10822 10824 10825 10829 10834 10840 10843 10846 10848 10849 10850 10851 10853 10855 10856 10858 10859 10859 10860 10862 10864 10866 10867 10869 10871 10872 10874 10876 10878 10880 10882 10884 10886 10887 10889 10891 10892 10893 10895 10896 10897 10897 10897 10897 10898 10898 10898 10899 10901 10903 10905 10906 10907 10905 10905 10905 10907 10908 10910
10658 10666 10675 10684 10692 10700 10705 10710 10722 10736 10745 10752 10757 10759 10764 10773 10782 10786 10790 10793 10797 10801 10806 10811 10815 10815 10814 10816 10819 10821 10824 10830 10836 10839 10841 10843 10845 10846 10847 10848 10850 10852 10854 10855 10855 10856 10857 10859 10861 10863 10865 10866 10867 10869 10870 10872 10874 10877 10878 10879 10880 10882 10883 10885 10886 10888 10888 10888 10889 10889 10889 10890 10891 10891 10892 10894 10896 10899 10900 10900 10899 10898 10899 10901 10903 10903
10646 10654 10664 10673 10681 10690 10695 10704 10718 10730 10736 10742 10745 10748 10756 10766 10772 10776 10782 10787 10789 10794 10800 10805 10809 10811 10810 10810 10812 10815 10819 10825 10830 10833 10835 10837 10839 10841 10843 10844 10846 10848 10849 10850 10851 10852 10853 10854 10856 10858 10860 10861 10862 10863 10865 10867 10869 10870 10871 10872 10874 10875 10876 10878 10879 10879 10879 10880 10880 10881 10882 10884 10884 10885 10886 10887 10889 10891 10892 10892 10893 10893 10893 10894 10896 10897
10632 10642 10653 10661 10671 10680 10686 10696 10709 10719 10726 10734 10736 10739 10749 10757 10761 10768 10776 10780 10782 10788 10795 10800 10803 10805 10804 10804 10806 10810 10814 10821 10827 10828 10828 10829 10832 10836 10838 10839 10841 10843 10845 10846 10847 10847 10849 10850 10851 10853 10854 10856 10856 10858 10860 10862 10863 10864 10865 10867 10868 10869 10870 10871 10870 10869 10870 10872 10874 10876 10877 10877 10877 10877 10879 10881 10881 10881 10882 10884 10886 10888 10888 10888 10888 10889
10619 10631 10641 10650 10662 10671 10678 10689 10702 10712 10720 10726 10728 10732 10741 10747 10753 10761 10768 10773 10777 10782 10788 10793 10796 10797 10798 10798 10800 10804 10810 10819 10822 10820 10819 10822 10826 10829 10832 10834 10836 10838 10840 10841 10842 10843 10844 10845 10847 10848 10849 10850 10851 10852 10855 10857 10858 10859 10859 10860 10862 10863 10864 10863 10863 10863 10864 10866 10869 10871 10871 10870 10869 10869 10871 10872 10873 10873 10874 10875 10878 10879 10880 10881 10880 10880
10608 10619 10629 10642 10657 10666 10672 10682 10693 10703 10711 10716 10719 10725 10732 10738 10745 10752 10759 10767 10772 10775 10781 10786 10787 10789 10791 10793 10795 10799 10806 10813 10813 10810 10812 10816 10819 10822 10826 10829 10831 10833 10835 10837 10838 10839 10840 10841 10842 10843 10844 10845 10846 10847 10848 10850 10852 10853 10854 10855 10856 10856 10856 10856 10857 10858 10859 10860 10862 10862 10862 10862 10861 10861 10862 10863 10863 10864 10865 10866 10868 10869 10871 10872 10872 10871
10596 10608 10619 10634 10649 10656 10662 10672 10683 10693 10702 10707 10711 10717 10723 10729 10736 10744 10753 10762 10765 10767 10773 10777 10778 10781 10785 10787 10790 10793 10797 10801 10801 10802 10806 10810 10812 10816 10819 10822 10825 10828 10830 10831 10833 10835 10836 10836 10837 10838 10839 10840 10841 10841 10842 10843 10845 10847 10848 10849 10850 10850 10850 10850 10852 10852 10852 10853 10854 10854 10854 10854 10853 10853 10854 10855 10855 10855 10856 10857 10858 10860 10861 10861 10861 10862
10585 10596 10609 10623 10636 10645 10653 10663 10671 10681 10693 10698 10702 10708 10713 10719 10730 10740 10746 10751 10756 10760 10764 10767 10770 10774 10777 10780 10782 10785 10788 10791 10792 10796 10800 10803 10806 10809 10813 10815 10818 10821 10823 10826 10827 10829 10831 10831 10832 10833 10833 10834 10835 10836 10836 10837 10838 10840 10841 10842 10843 10843 10844 10844 10845 10845 10846 10846 10847 10848 10848 10847 10846 10846 10847 10848 10848 10848 10849 10849 10851 10852 10852 10851 10851 10851
10573 10584 10598 10614 10626 10634 10641 10648 10658 10673 10687 10690 10690 10697 10704 10712 10724 10734 10737 10741 10748 10752 10755 10758 10761 10764 10768 10771 10774 10777 10780 10783 10785 10789 10793 10797 10800 10803 10806 10809 10811 10814 10816 10819 10821 10823 10824 10825 10827 10827 10828 10828 10829 10830 10831 10831 10832 10833 10834 10835 10836 10836 10837 10837 10837 10839 10840 10839 10840 10841 10841 10841 10840 10840 10841 10841 10841 10842 10842 10842 10844 10845 10845 10843 10843 10843
10562 10575 10590 10604 10612 10617 10625 10638 10652 10667 10677 10678 10678 10687 10696 10705 10716 10724 10728 10733 10739 10742 10745 10749 10752 10754 10759 10763 10767 10770 10773 10775 10778 10782 10786 10790 10794 10797 10800 10803 10805 10807 10809 10811 10813 10816 10817 10818 10820 10821 10822 10822 10822 10823 10824 10825 10826 10827 10828 10828 10829 10829 10830 10830 10831 10831 10831 10832 10832 10833 10834 10834 10835 10835 10835 10834 10834 10835 10835 10835 10836 10838 10838 10837 10836 10836
10555 10567 10579 10589 10596 10604 10619 10636 10648 10657 10665 10669 10672 10679 10688 10697 10706 10714 10719 10724 10729 10732 10735 10739 10742 10745 10749 10754 10759 10763 10765 10768 10771 10775 10779 10783 10787 10790 10794 10796 10798 10800 10801 10803 10805 10808 10810 10811 10813 10814 10815 10816 10816 10817 10818 10818 10819 10820 10821 10822 10822 10823 10823 10824 10824 10824 10824 10824 10825 10825 10826 10827 10828 10828 10828 10828 10828 10829 10829 10828 10828 10829 10830 10830 10830 10829
10547 10557 10566 10575 10585 10598 10615 10629 10636 10643 10653 10660 10662 10668 10678 10688 10696 10704 10710 10715 10720 10723 10725 10728 10732 10736 10739 10744 10750 10755 10757 10761 10765 10769 10773 10777 10780 10783 10786 10789 10791 10793 10794 10796 10797 10799 10802 10803 10805 10806 10807 10808 10809 10810 10811 10812 10812 10813 10814 10815 10815 10816 10816 10817 10817 10818 10817 10817 10818 10818 10819 10820 10820 10820 10821 10821 10822 10823 10822 10821 10821 10821 10821 10822 10822 10821
10537 10545 10554 10566 10578 10592 10608 10618 10622 10629 10640 10647 10651 10660 10670 10678 10686 10694 10700 10706 10711 10715 10717 10718 10721 10726 10730 10735 10741 10746 10750 10754 10758 10762 10766 10769 10772 10775 10778 10781 10783 10785 10787 10789 10790 10792 10793 10795 10796 10798 10799 10800 10801 10803 10803 10804 10805 10805 10806 10807 10808 10809 10810 10810 10810 10811 10811 10811 10812 10812 10812 10813 10813 10813 10813 10814 10815 10815 10815 10814 10814 10814 10814 10814 10813 10813
10524 10533 10545 10558 10570 10583 10598 10607 10612 10620 10630 10637 10644 10653 10660 10667 10676 10684 10691 10697 10702 10706 10710 10711 10712 10716 10722 10727 10732 10737 10742 10746 10750 10754 10758 10761 10765 10767 10769 10772 10775 10777 10779 10781 10783 10784 10786 10787 10788 10790 10791 10791 10792 10793 10794 10795 10796 10797 10798 10799 10800 10801 10802 10803 10803 10804 10804 10805 10806 10806 10806 10806 10805 10805 10806 10806 10807 10808 10809 10808 10807 10807 10807 10807 10805 10805
10510 10523 10538 10549 10558 10572 10587 10596 10601 10609 10618 10625 10635 10645 10651 10657 10666 10673 10681 10688 10692 10696 10702 10705 10706 10708 10713 10719 10725 10730 10733 10737 10742 10746 10749 10752 10756 10759 10761 10763 10766 10768 10770 10772 10774 10776 10778 10779 10781 10782 10782 10783 10783 10784 10784 10785 10786 10788 10789 10791 10792 10793 10794 10795 10795 10796 10796 10797 10798 10798 10798 10798 10797 10797 10797 10798 10799 10801 10801 10801 10801 10801 10801 10799 10797 10796
10500 10515 10526 10535 10547 10564 10578 10583 10586 10595 10605 10614 10624 10633 10640 10647 10655 10663 10671 10678 10683 10687 10693 10698 10700 10702 10705 10710 10717 10721 10724 10728 10733 10737 10741 10744 10746 10749 10752 10754 10757 10759 10761 10763 10765 10767 10769 10771 10772 10773 10773 10773 10773 10774 10774 10775 10777 10779 10781 10782 10783 10785 10785 10786 10787 10788 10789 10789 10790 10790 10790 10790 10789 10789 10789 10790 10791 10793 10794 10795 10794 10793 10794 10793 10790 10789
10492 10503 10511 10524 10541 10557 10564 10566 10572 10585 10596 10603 10611 10620 10629 10637 10645 10653 10661 10668 10674 10679 10684 10689 10692 10695 10696 10700 10705 10711 10715 10720 10723 10727 10731 10734 10736 10739 10742 10745 10748 10750 10752 10753 10755 10757 10759 10761 10762 10763 10763 10763 10763 10764 10765 10767 10768 10770 10772 10773 10775 10776 10777 10778 10779 10780 10781 10781 10781 10782 10782 10782 10782 10782 10782 10783 10784 10786 10787 10788 10787 10786 10786 10785 10784 10783